Home > Weather > Gustavia > Past weeks

Past Weather in Gustavia, Saint Barthélemy — Yesterday and Last 2 Weeks

Now
82 °F

Passing clouds.


Feels Like: 89 °F
Forecast: 80 / 84 °F
Wind: 10 mph from East

Location: Juliana Airport - Saint Maarten

Current Time: May 28, 2016 at 4:21:12 PM

Latest Report: May 28, 2016 at 3:00 PM


Visibility: N/A

Pressure: 30.01 "Hg

Humidity: 79%

Dew Point: 75 °F

Location of GustaviaLocation

Past Weather in Gustavia — Graph

°F

Gustavia Temperature Yesterday

Maximum temperature yesterday: 86 °F (at 12:00 PM)
Minimum temperature yesterday: 79 °F (at 7:00 AM)
Average temperature yesterday: 83 °F

High & Low Weather Summary for the Past Weeks

 TemperatureHumidityPressure
High86 °F (May 13, 4:00 PM)89% (May 14, 9:00 PM)30.12 "Hg (May 14, 9:00 PM)
Low77 °F (May 19, 4:00 AM)59% (May 13, 4:00 PM)29.86 "Hg (May 26, 4:00 PM)
Average82 °F77%30.04 "Hg
* Reported May 13 3:00 PM — May 28 3:00 PM, Gustavia, Weather by CustomWeather, © 2016

Note: Actual official high and low records may vary slightly from our data, if they occured in-between our weather recording intervals... More about our weather records

Advertising

Gustavia Weather History for the Previous 24 Hours

Scroll right to see more
 ConditionsComfort  
Time TempWeatherWind HumidityBarometerVisibility
3:00 PM
Sat, May 28
82 °FPassing clouds.10 mph79%30.01 "HgN/A
2:00 PM84 °FScattered clouds.8 mph74%30.04 "HgN/A
1:00 PM84 °FScattered clouds.10 mph79%30.04 "HgN/A
12:00 PM82 °FScattered clouds.9 mph79%30.04 "HgN/A
11:00 AM82 °FPassing clouds.10 mph79%30.07 "HgN/A
10:00 AM82 °FPassing clouds.12 mph79%30.04 "HgN/A
9:00 AM82 °FPassing clouds.12 mph79%30.04 "HgN/A
8:00 AM82 °FScattered clouds.13 mph79%30.04 "HgN/A
7:00 AM82 °FPartly sunny.12 mph79%30.01 "HgN/A
6:00 AM81 °FPartly sunny.14 mph84%29.98 "HgN/A
5:00 AM81 °FPassing clouds.13 mph84%29.95 "HgN/A
4:00 AM82 °FPassing clouds.10 mph79%29.95 "HgN/A
3:00 AM81 °FPassing clouds.12 mph84%29.95 "HgN/A
2:00 AM81 °FPassing clouds.10 mph84%29.98 "HgN/A
1:00 AM81 °FPassing clouds.13 mph84%29.98 "HgN/A
12:00 AM82 °FPassing clouds.14 mph79%29.98 "HgN/A
11:00 PM
Fri, May 27
82 °FPassing clouds.14 mph84%30.01 "HgN/A
10:00 PM82 °FSprinkles. Passing clouds.10 mph84%30.01 "HgN/A
9:00 PM82 °FPassing clouds.14 mph79%29.98 "HgN/A
8:00 PM82 °FPassing clouds.10 mph84%29.98 "HgN/A
7:00 PM82 °FPassing clouds.14 mph79%29.95 "HgN/A
6:00 PM82 °FScattered clouds.13 mph79%29.95 "HgN/A
5:00 PM84 °FScattered clouds.10 mph74%29.95 "HgN/A
4:00 PM84 °FPassing clouds.10 mph74%29.95 "HgN/A
Weather by CustomWeather, © 2016

See weather overviewHow to use our weather pages